Time,TemperatureF,DewpointF,PressureIn,WindDirection,WindDirectionDegrees,WindSpeedMPH,WindSpeedGustMPH,Humidity,HourlyPrecipIn,Conditions,Clouds,dailyrainin,SolarRadiationWatts/m^2,SoftwareType,DateUTC
2013-01-27 00:08:00,49.4,48.0,28.85,SE,133,15.0,-999.0,96,-99.99,,,0.00,0,weatherlink.com 1.10,2013-01-27 00:08:00,
2013-01-27 00:23:00,49.5,48.0,28.84,SW,223,5.0,-999.0,96,-99.99,,,0.00,0,weatherlink.com 1.10,2013-01-27 00:23:00,
2013-01-27 00:38:00,49.6,49.0,28.82,South,179,11.0,-999.0,96,-99.99,,,0.00,0,weatherlink.com 1.10,2013-01-27 00:38:00,
2013-01-27 00:53:00,49.6,49.0,28.80,East,94,7.0,-999.0,96,-99.99,,,0.00,0,weatherlink.com 1.10,2013-01-27 00:53:00,
2013-01-27 01:08:00,49.6,49.0,28.79,South,174,11.0,-999.0,96,-99.99,,,0.01,0,weatherlink.com 1.10,2013-01-27 01:08:00,
2013-01-27 01:23:00,49.8,49.0,28.77,South,186,8.0,-999.0,96,-99.99,,,0.02,0,weatherlink.com 1.10,2013-01-27 01:23:00,
2013-01-27 01:38:00,49.8,49.0,28.77,WSW,254,4.0,-999.0,96,-99.99,,,0.06,0,weatherlink.com 1.10,2013-01-27 01:38:00,
2013-01-27 01:53:00,49.9,49.0,28.76,SSW,207,16.0,-999.0,97,-99.99,,,0.07,0,weatherlink.com 1.10,2013-01-27 01:53:00,
2013-01-27 02:08:00,49.7,49.0,28.75,SSW,208,14.0,-999.0,97,-99.99,,,0.09,0,weatherlink.com 1.10,2013-01-27 02:08:00,
2013-01-27 02:23:00,49.2,48.0,28.75,SSW,201,12.0,-999.0,96,-99.99,,,0.09,0,weatherlink.com 1.10,2013-01-27 02:23:00,
2013-01-27 02:38:00,48.8,48.0,28.74,SSW,196,15.0,-999.0,96,-99.99,,,0.09,0,weatherlink.com 1.10,2013-01-27 02:38:00,
2013-01-27 02:53:00,48.6,48.0,28.75,SSW,202,10.0,-999.0,96,-99.99,,,0.09,0,weatherlink.com 1.10,2013-01-27 02:53:00,
2013-01-27 03:09:00,47.9,47.0,28.76,South,186,5.0,-999.0,96,-99.99,,,0.09,0,weatherlink.com 1.10,2013-01-27 03:09:00,
2013-01-27 03:24:00,46.5,45.0,28.77,South,173,10.0,-999.0,95,-99.99,,,0.09,0,weatherlink.com 1.10,2013-01-27 03:24:00,
2013-01-27 03:38:00,45.9,45.0,28.78,WSW,248,12.0,-999.0,95,-99.99,,,0.09,0,weatherlink.com 1.10,2013-01-27 03:38:00,
2013-01-27 03:53:00,44.4,43.0,28.78,WNW,297,10.0,-999.0,95,-99.99,,,0.09,0,weatherlink.com 1.10,2013-01-27 03:53:00,
2013-01-27 04:09:00,43.6,42.0,28.78,WNW,303,11.0,-999.0,95,-99.99,,,0.09,0,weatherlink.com 1.10,2013-01-27 04:09:00,
2013-01-27 04:24:00,43.2,42.0,28.79,WNW,283,13.0,-999.0,95,-99.99,,,0.09,0,weatherlink.com 1.10,2013-01-27 04:24:00,
2013-01-27 04:39:00,43.0,42.0,28.80,West,271,10.0,-999.0,96,-99.99,,,0.09,0,weatherlink.com 1.10,2013-01-27 04:39:00,
2013-01-27 04:54:00,43.3,42.0,28.80,SW,221,3.0,-999.0,96,-99.99,,,0.09,0,weatherlink.com 1.10,2013-01-27 04:54:00,
2013-01-27 05:09:00,43.6,43.0,28.80,SSW,194,8.0,-999.0,96,-99.99,,,0.10,0,weatherlink.com 1.10,2013-01-27 05:09:00,
2013-01-27 05:24:00,43.6,43.0,28.80,WSW,238,13.0,-999.0,96,-99.99,,,0.12,0,weatherlink.com 1.10,2013-01-27 05:24:00,
2013-01-27 05:39:00,43.5,43.0,28.81,SW,233,4.0,-999.0,96,-99.99,,,0.13,0,weatherlink.com 1.10,2013-01-27 05:39:00,
2013-01-27 05:54:00,43.3,42.0,28.80,SSW,192,11.0,-999.0,95,-99.99,,,0.13,0,weatherlink.com 1.10,2013-01-27 05:54:00,
2013-01-27 06:09:00,43.4,42.0,28.80,SSW,192,5.0,-999.0,94,-99.99,,,0.13,0,weatherlink.com 1.10,2013-01-27 06:09:00,
2013-01-27 06:24:00,43.7,42.0,28.80,SSW,208,5.0,-999.0,93,-99.99,,,0.13,0,weatherlink.com 1.10,2013-01-27 06:24:00,
2013-01-27 06:39:00,43.8,42.0,28.79,South,185,3.0,-999.0,92,-99.99,,,0.13,0,weatherlink.com 1.10,2013-01-27 06:39:00,
2013-01-27 06:54:00,43.7,41.0,28.79,WSW,246,7.0,-999.0,91,-99.99,,,0.13,0,weatherlink.com 1.10,2013-01-27 06:54:00,
2013-01-27 07:09:00,43.6,42.0,28.79,SW,227,9.0,-999.0,92,-99.99,,,0.13,0,weatherlink.com 1.10,2013-01-27 07:09:00,
2013-01-27 07:24:00,43.1,41.0,28.79,SSW,200,3.0,-999.0,92,-99.99,,,0.14,0,weatherlink.com 1.10,2013-01-27 07:24:00,
2013-01-27 07:39:00,41.1,39.0,28.82,WSW,257,10.0,-999.0,91,-99.99,,,0.17,0,weatherlink.com 1.10,2013-01-27 07:39:00,
2013-01-27 07:54:00,39.5,38.0,28.80,West,270,11.0,-999.0,93,-99.99,,,0.17,0,weatherlink.com 1.10,2013-01-27 07:54:00,
2013-01-27 08:09:00,39.6,38.0,28.82,WSW,255,6.0,-999.0,94,-99.99,,,0.17,0,weatherlink.com 1.10,2013-01-27 08:09:00,
2013-01-27 08:24:00,40.4,39.0,28.83,SW,226,5.0,-999.0,94,-99.99,,,0.17,0,weatherlink.com 1.10,2013-01-27 08:24:00,
2013-01-27 08:39:00,41.3,40.0,28.84,SW,225,5.0,-999.0,93,-99.99,,,0.17,5,weatherlink.com 1.10,2013-01-27 08:39:00,
2013-01-27 08:54:00,41.8,39.0,28.85,SW,219,8.0,-999.0,91,-99.99,,,0.17,11,weatherlink.com 1.10,2013-01-27 08:54:00,
2013-01-27 09:09:00,41.4,39.0,28.86,South,188,9.0,-999.0,92,-99.99,,,0.18,7,weatherlink.com 1.10,2013-01-27 09:09:00,
2013-01-27 09:24:00,41.1,39.0,28.86,WSW,242,9.0,-999.0,91,-99.99,,,0.18,32,weatherlink.com 1.10,2013-01-27 09:24:00,
2013-01-27 09:39:00,41.1,40.0,28.87,WNW,283,9.0,-999.0,95,-99.99,,,0.18,30,weatherlink.com 1.10,2013-01-27 09:39:00,
2013-01-27 09:54:00,41.0,38.0,28.88,SSW,208,13.0,-999.0,90,-99.99,,,0.18,19,weatherlink.com 1.10,2013-01-27 09:54:00,
2013-01-27 10:09:00,41.0,38.0,28.89,SSW,193,8.0,-999.0,90,-99.99,,,0.18,23,weatherlink.com 1.10,2013-01-27 10:09:00,
2013-01-27 10:24:00,41.2,38.0,28.90,SW,228,6.0,-999.0,89,-99.99,,,0.18,84,weatherlink.com 1.10,2013-01-27 10:24:00,
2013-01-27 10:39:00,41.6,38.0,28.91,SSW,211,14.0,-999.0,87,-99.99,,,0.18,120,weatherlink.com 1.10,2013-01-27 10:39:00,
2013-01-27 10:55:00,41.7,38.0,28.91,SSW,198,11.0,-999.0,86,-99.99,,,0.18,86,weatherlink.com 1.10,2013-01-27 10:55:00,
2013-01-27 11:09:00,41.8,38.0,28.92,SW,218,11.0,-999.0,86,-99.99,,,0.18,44,weatherlink.com 1.10,2013-01-27 11:09:00,
2013-01-27 11:24:00,41.8,38.0,28.93,SE,146,8.0,-999.0,87,-99.99,,,0.18,62,weatherlink.com 1.10,2013-01-27 11:24:00,
2013-01-27 11:39:00,42.0,38.0,28.93,WSW,250,10.0,-999.0,86,-99.99,,,0.18,84,weatherlink.com 1.10,2013-01-27 11:39:00,
2013-01-27 11:54:00,41.9,38.0,28.92,SW,232,13.0,-999.0,86,-99.99,,,0.18,58,weatherlink.com 1.10,2013-01-27 11:54:00,
2013-01-27 12:09:00,42.0,38.0,28.92,SW,224,15.0,-999.0,85,-99.99,,,0.18,33,weatherlink.com 1.10,2013-01-27 12:09:00,
2013-01-27 12:25:00,42.1,38.0,28.91,SW,216,13.0,-999.0,86,-99.99,,,0.18,44,weatherlink.com 1.10,2013-01-27 12:25:00,
2013-01-27 12:39:00,42.1,38.0,28.92,SSW,203,13.0,-999.0,85,-99.99,,,0.18,18,weatherlink.com 1.10,2013-01-27 12:39:00,
2013-01-27 12:54:00,41.9,38.0,28.92,South,180,6.0,-999.0,85,-99.99,,,0.18,14,weatherlink.com 1.10,2013-01-27 12:54:00,
2013-01-27 13:10:00,41.9,38.0,28.92,SSW,208,8.0,-999.0,86,-99.99,,,0.18,51,weatherlink.com 1.10,2013-01-27 13:10:00,
2013-01-27 13:24:00,41.3,38.0,28.92,WSW,252,18.0,-999.0,89,-99.99,,,0.18,58,weatherlink.com 1.10,2013-01-27 13:24:00,
2013-01-27 13:39:00,40.8,38.0,28.93,South,179,9.0,-999.0,90,-99.99,,,0.19,56,weatherlink.com 1.10,2013-01-27 13:39:00,
2013-01-27 13:54:00,40.5,38.0,28.94,SW,232,16.0,-999.0,90,-99.99,,,0.19,53,weatherlink.com 1.10,2013-01-27 13:54:00,
2013-01-27 14:09:00,40.8,38.0,28.95,SW,226,6.0,-999.0,90,-99.99,,,0.19,35,weatherlink.com 1.10,2013-01-27 14:09:00,
2013-01-27 14:24:00,41.3,38.0,28.95,WSW,247,15.0,-999.0,89,-99.99,,,0.19,26,weatherlink.com 1.10,2013-01-27 14:24:00,
2013-01-27 14:40:00,41.3,38.0,28.95,West,270,8.0,-999.0,88,-99.99,,,0.19,44,weatherlink.com 1.10,2013-01-27 14:40:00,
2013-01-27 14:55:00,41.5,39.0,28.97,South,185,4.0,-999.0,89,-99.99,,,0.19,26,weatherlink.com 1.10,2013-01-27 14:55:00,
2013-01-27 15:10:00,41.5,39.0,28.97,WSW,255,5.0,-999.0,89,-99.99,,,0.19,70,weatherlink.com 1.10,2013-01-27 15:10:00,
2013-01-27 15:25:00,41.6,39.0,28.98,SW,219,8.0,-999.0,89,-99.99,,,0.19,33,weatherlink.com 1.10,2013-01-27 15:25:00,
2013-01-27 15:40:00,41.8,40.0,28.99,WSW,252,4.0,-999.0,92,-99.99,,,0.19,5,weatherlink.com 1.10,2013-01-27 15:40:00,
2013-01-27 15:55:00,41.9,39.0,29.00,SSE,155,8.0,-999.0,88,-99.99,,,0.19,5,weatherlink.com 1.10,2013-01-27 15:55:00,
2013-01-27 16:10:00,40.7,38.0,29.01,South,184,11.0,-999.0,88,-99.99,,,0.20,11,weatherlink.com 1.10,2013-01-27 16:10:00,
2013-01-27 16:25:00,40.3,37.0,29.02,SSW,203,7.0,-999.0,89,-99.99,,,0.20,5,weatherlink.com 1.10,2013-01-27 16:25:00,
2013-01-27 16:40:00,40.4,38.0,29.03,SSE,151,14.0,-999.0,89,-99.99,,,0.20,0,weatherlink.com 1.10,2013-01-27 16:40:00,
2013-01-27 16:55:00,40.3,38.0,29.04,South,190,8.0,-999.0,90,-99.99,,,0.20,0,weatherlink.com 1.10,2013-01-27 16:55:00,
2013-01-27 17:10:00,40.6,38.0,29.05,SW,223,5.0,-999.0,90,-99.99,,,0.20,0,weatherlink.com 1.10,2013-01-27 17:10:00,
2013-01-27 17:25:00,40.9,38.0,29.05,South,188,6.0,-999.0,90,-99.99,,,0.20,0,weatherlink.com 1.10,2013-01-27 17:25:00,
2013-01-27 17:40:00,41.0,38.0,29.06,South,190,4.0,-999.0,89,-99.99,,,0.20,0,weatherlink.com 1.10,2013-01-27 17:40:00,
2013-01-27 17:55:00,40.7,38.0,29.07,SSW,213,8.0,-999.0,88,-99.99,,,0.20,0,weatherlink.com 1.10,2013-01-27 17:55:00,
2013-01-27 18:10:00,40.7,38.0,29.07,SSW,206,3.0,-999.0,88,-99.99,,,0.20,0,weatherlink.com 1.10,2013-01-27 18:10:00,
2013-01-27 18:25:00,41.2,38.0,29.08,SSW,195,17.0,-999.0,87,-99.99,,,0.20,0,weatherlink.com 1.10,2013-01-27 18:25:00,
2013-01-27 18:40:00,41.6,38.0,29.09,SSW,203,8.0,-999.0,87,-99.99,,,0.20,0,weatherlink.com 1.10,2013-01-27 18:40:00,
2013-01-27 18:55:00,41.5,37.0,29.09,SSW,212,11.0,-999.0,84,-99.99,,,0.20,0,weatherlink.com 1.10,2013-01-27 18:55:00,
2013-01-27 19:10:00,41.1,37.0,29.09,SSW,196,7.0,-999.0,85,-99.99,,,0.20,0,weatherlink.com 1.10,2013-01-27 19:10:00,
2013-01-27 19:25:00,41.0,37.0,29.10,SSW,208,14.0,-999.0,85,-99.99,,,0.20,0,weatherlink.com 1.10,2013-01-27 19:25:00,
2013-01-27 19:40:00,41.2,37.0,29.11,SW,217,5.0,-999.0,84,-99.99,,,0.20,0,weatherlink.com 1.10,2013-01-27 19:40:00,
2013-01-27 19:55:00,41.1,37.0,29.11,East,84,3.0,-999.0,85,-99.99,,,0.20,0,weatherlink.com 1.10,2013-01-27 19:55:00,
2013-01-27 20:10:00,41.3,37.0,29.12,West,281,6.0,-999.0,85,-99.99,,,0.20,0,weatherlink.com 1.10,2013-01-27 20:10:00,
2013-01-27 20:25:00,41.4,37.0,29.12,WSW,238,6.0,-999.0,85,-99.99,,,0.20,0,weatherlink.com 1.10,2013-01-27 20:25:00,
2013-01-27 20:40:00,41.1,37.0,29.12,West,265,5.0,-999.0,85,-99.99,,,0.20,0,weatherlink.com 1.10,2013-01-27 20:40:00,
2013-01-27 20:55:00,41.1,37.0,29.13,SW,219,8.0,-999.0,85,-99.99,,,0.20,0,weatherlink.com 1.10,2013-01-27 20:55:00,
2013-01-27 21:10:00,41.1,37.0,29.13,SSW,211,4.0,-999.0,85,-99.99,,,0.20,0,weatherlink.com 1.10,2013-01-27 21:10:00,
2013-01-27 21:27:00,41.1,37.0,29.14,SSW,202,6.0,-999.0,84,-99.99,,,0.20,0,weatherlink.com 1.10,2013-01-27 21:27:00,
2013-01-27 21:40:00,41.1,37.0,29.15,SSW,212,10.0,-999.0,84,-99.99,,,0.20,0,weatherlink.com 1.10,2013-01-27 21:40:00,
2013-01-27 21:55:00,41.0,37.0,29.15,SSW,198,9.0,-999.0,85,-99.99,,,0.20,0,weatherlink.com 1.10,2013-01-27 21:55:00,
2013-01-27 22:10:00,40.6,37.0,29.16,SW,227,4.0,-999.0,86,-99.99,,,0.20,0,weatherlink.com 1.10,2013-01-27 22:10:00,
2013-01-27 22:26:00,40.8,37.0,29.16,SSE,151,7.0,-999.0,85,-99.99,,,0.20,0,weatherlink.com 1.10,2013-01-27 22:26:00,
2013-01-27 22:41:00,40.8,37.0,29.17,SW,219,6.0,-999.0,85,-99.99,,,0.20,0,weatherlink.com 1.10,2013-01-27 22:41:00,
2013-01-27 22:55:00,40.7,37.0,29.18,SW,217,13.0,-999.0,85,-99.99,,,0.20,0,weatherlink.com 1.10,2013-01-27 22:55:00,
2013-01-27 23:10:00,40.1,37.0,29.18,SW,235,12.0,-999.0,87,-99.99,,,0.20,0,weatherlink.com 1.10,2013-01-27 23:10:00,
2013-01-27 23:25:00,39.9,37.0,29.18,SSW,208,7.0,-999.0,88,-99.99,,,0.20,0,weatherlink.com 1.10,2013-01-27 23:25:00,
2013-01-27 23:40:00,39.8,36.0,29.19,SW,227,13.0,-999.0,87,-99.99,,,0.20,0,weatherlink.com 1.10,2013-01-27 23:40:00,
2013-01-27 23:56:00,39.9,37.0,29.20,SW,223,7.0,-999.0,88,-99.99,,,0.20,0,weatherlink.com 1.10,2013-01-27 23:56:00,